Weather History for KEBG - March, 2013

Change the Weather History Date:

Monday, March 4, 2013

  Actual Average (KMFE) Record (KMFE)
Temperature  
Mean Temperature 78 °F 68 °F  
Max Temperature 92 °F 79 °F 95 °F (1963)
Min Temperature 64 °F 58 °F 33 °F (1908)
Degree Days  
Heating Degree Days 0 2  
Month to date heating degree days 8  
Since 1 July heating degree days 541  
Cooling Degree Days 13 5  
Month to date cooling degree days 20  
Year to date cooling degree days 179  
Growing Degree Days 28 (Base 50)    
Moisture  
Dew Point 52 °F    
Average Humidity 49    
Maximum Humidity 73    
Minimum Humidity 13    
Precipitation  
Precipitation 0.10 in 0.04 in 0.33 in (1968)
Month to date precipitation 0.16  
Year to date precipitation 2.32  
Sea Level Pressure  
Sea Level Pressure 29.87 in    
Wind  
Wind Speed 16 mph (South)    
Max Wind Speed 22 mph    
Max Gust Speed 28 mph    
Visibility 6 miles    
Events      
T = Trace of Precipitation, MM = Missing Value Source: NWS Daily Summary

Daily Weather History Graph

Daily Weather History Graph

Search for Another Location

Airport or City:

Trip Planner

Search our weather history database for the weather conditions in past years. The results will help you decide how hot, cold, wet, or windy it might be!

Date:

Astronomy

Mar. 04, 2013 Rise Set
Actual Time 6:52 AM CST 6:35 PM CST
Civil Twilight 6:29 AM CST 6:58 PM CST
Nautical Twilight 6:02 AM CST 7:25 PM CST
Astronomical Twilight 5:36 AM CST 7:52 PM CST
Moon 12:41 AM CST (3/4) 11:42 AM CST (3/4)
Length of Visible Light 12h 29m
Length of Day
11h 42m
Waning Gibbous, 52% of the Moon is Illuminated
Mar 4
Waning Gibbous
Mar 4
Last Quarter
Mar 11
New
Mar 19
First Quarter
Mar 27
Full

Hourly Weather History & Observations

Time (CST) Temp. Dew Point Humidity Pressure Visibility Wind Dir Wind Speed Gust Speed Precip Events Conditions
7:55 AM 64.2 °F 53.2 °F 67% 29.94 in 7.0 mi South 13.8 mph 18.4 mph N/A   Clear
8:15 AM 65.3 °F 53.1 °F 65% 29.96 in 7.0 mi South 10.4 mph - N/A   Clear
8:35 AM 66.7 °F 52.7 °F 61% 29.96 in 7.0 mi South 13.8 mph 19.6 mph 0.10 in   Clear
8:55 AM 68.7 °F 52.5 °F 56% 29.96 in 7.0 mi South 19.6 mph 23.0 mph 0.10 in   Clear
9:15 AM 69.6 °F 52.2 °F 54% 29.96 in 5.0 mi South 21.9 mph 27.6 mph N/A   Haze
9:35 AM 71.1 °F 51.8 °F 50% 29.96 in 5.0 mi South 19.6 mph 25.3 mph N/A   Haze
9:55 AM 72.1 °F 51.1 °F 47% 29.95 in 5.0 mi South 19.6 mph 26.5 mph N/A   Haze
10:15 AM 73.8 °F 50.7 °F 44% 29.94 in 7.0 mi South 18.4 mph 25.3 mph N/A   Clear
10:35 AM 75.0 °F 50.2 °F 42% 29.93 in 5.0 mi South 18.4 mph 26.5 mph N/A   Haze
10:55 AM 77.2 °F 49.8 °F 38% 29.93 in 5.0 mi South 15.0 mph 21.9 mph N/A   Haze
11:15 AM 78.1 °F 48.7 °F 36% 29.92 in 7.0 mi South 17.3 mph 24.2 mph N/A   Clear
11:55 AM 80.8 °F 47.3 °F 31% 29.90 in 7.0 mi SSW 16.1 mph 25.3 mph N/A   Clear
12:15 PM 82.2 °F 46.4 °F 28% 29.88 in 7.0 mi South 19.6 mph 27.6 mph N/A   Clear
12:35 PM 84.2 °F 45.9 °F 26% 29.86 in 7.0 mi South 17.3 mph 24.2 mph N/A   Clear
12:55 PM 85.5 °F 44.4 °F 24% 29.85 in 7.0 mi South 17.3 mph 23.0 mph N/A   Clear
1:15 PM 86.9 °F 43.9 °F 22% 29.84 in 5.0 mi South 13.8 mph 20.7 mph N/A   Haze
1:35 PM 87.6 °F 42.4 °F 21% 29.83 in 7.0 mi SSW 18.4 mph 24.2 mph N/A   Clear
1:55 PM 89.1 °F 41.4 °F 19% 29.81 in 5.0 mi South 17.3 mph - N/A   Haze
2:35 PM 90.7 °F 36.7 °F 15% 29.78 in 7.0 mi South 18.4 mph 25.3 mph N/A   Clear
2:55 PM 91.8 °F 36.0 °F 14% 29.77 in 5.0 mi South 12.7 mph 21.9 mph N/A   Haze
3:15 PM 92.3 °F 35.4 °F 13% 29.76 in 7.0 mi SSE 16.1 mph 24.2 mph N/A   Clear
7:15 PM 74.3 °F 57.2 °F 55% 29.80 in 7.0 mi SSE 16.1 mph 24.2 mph N/A   Clear
7:35 PM 73.0 °F 58.1 °F 59% 29.81 in 5.0 mi SSE 19.6 mph 23.0 mph N/A   Haze
7:55 PM 72.1 °F 58.5 °F 62% 29.81 in 7.0 mi SSE 15.0 mph 23.0 mph N/A   Clear
8:15 PM 71.2 °F 59.0 °F 65% 29.81 in 7.0 mi SSE 15.0 mph - N/A   Clear
8:35 PM 70.9 °F 59.5 °F 67% 29.82 in 7.0 mi South 17.3 mph 24.2 mph N/A   Clear
8:55 PM 70.3 °F 59.9 °F 69% 29.82 in 7.0 mi SSE 17.3 mph 23.0 mph N/A   Clear
9:15 PM 70.2 °F 59.9 °F 70% 29.82 in 7.0 mi South 15.0 mph 21.9 mph N/A   Clear
9:35 PM 69.8 °F 59.9 °F 71% 29.83 in 7.0 mi SSE 18.4 mph 24.2 mph N/A   Clear
9:55 PM 69.6 °F 59.9 °F 71% 29.83 in 7.0 mi South 12.7 mph 24.2 mph N/A   Clear
10:15 PM 69.4 °F 59.9 °F 72% 29.84 in 7.0 mi South 15.0 mph 24.2 mph N/A   Clear
10:55 PM 69.3 °F 60.1 °F 72% 29.85 in 7.0 mi South 13.8 mph 25.3 mph N/A   Clear
11:15 PM 69.3 °F 59.9 °F 72% 29.85 in 7.0 mi South 13.8 mph 23.0 mph N/A   Clear
11:35 PM 68.9 °F 59.9 °F 73% 29.85 in 7.0 mi South 15.0 mph 19.6 mph N/A   Clear
11:55 PM 68.9 °F 59.9 °F 73% 29.85 in 7.0 mi South 12.7 mph 21.9 mph N/A   Clear